Terug naar catalogus

STARLINK-2187

ActiefCommunicatieVLEO
NORAD 48562·PAYLOAD·🇺🇸 United States

Gelanceerd May 15, 2021 vanaf Cape Canaveral Space Force Station

Loading…

Volgende Passages (komende 24 uur)

TLE

VersSource: CelesTrak SupGP

Epoch: Sep 14, 2026, 21:45 UTC

1 48562C 21041K   26257.90673611  .00331660  00000+0  13086-2 0  2573
2 48562  53.1467 291.0967 0007438  13.4602 208.5154 15.85895482    16

Volg STARLINK-2187 in realtime met AllMySat

Download on the App Store